Regional Weather Roundup
Issued by NWS Cleveland, OH

Home | Current Version | Previous Version | Text Only | Print | Product List | Glossary Off
Versions: 1 2 3 4 5 6 7 8 9 10 11 12 13 14 15 16 17 18 19 20 21 22 23 24 25 26 27 28 29 30 31 32 33 34 35 36 37 38 39 40 41 42 43 44 45 46 47 48 49 50

000
ASUS41 KCLE 271902
RWRCLE
OHIO REGIONAL WEATHER ROUNDUP
NATIONAL WEATHER SERVICE CLEVELAND, OH
200 PM EST MON FEB 27 2017

NOTE: "FAIR" INDICATES FEW OR NO CLOUDS BELOW 12,000 FEET WITH NO
SIGNIFICANT WEATHER AND/OR OBSTRUCTIONS TO VISIBILITY.

OHZ001>008-015>018-024>027-034-035-043-044-272000-
   NORTHWEST OHIO

CITY           SKY/WX    TMP DP  RH WIND       PRES   REMARKS
DEFIANCE       MOSUNNY   48  35  60 SW12      30.19F
FINDLAY        CLOUDY    50  31  48 S9        30.20F
TOLEDO EXPRESS MOSUNNY   48  32  53 SW13      30.19F
TOLEDO EXEC    MOSUNNY   50  33  52 S14       30.22F
LIMA           PTSUNNY   49  30  48 S9        30.20F
$$

OHZ009>014-019>023-028>033-038-089-272000-
   NORTHEAST OHIO

CITY           SKY/WX    TMP DP  RH WIND       PRES   REMARKS
CLE-HOPKINS    PTSUNNY   50  30  46 SW14      30.26F
CLE-LAKEFRONT  CLOUDY    48  31  51 W9G20     30.23F
CUY CO. ARPT   PTSUNNY   48  32  53 SW12      30.24F
LORAIN-ELYRIA  CLOUDY    46  31  55 SW10      30.24F
ASHTABULA      CLOUDY    47  27  45 SW15      30.25F
AKRON-CANTON   CLOUDY    46  27  47 S12       30.26S
WOOSTER        CLOUDY    44  29  55 S9        30.25F
MANSFIELD      CLOUDY    46  29  51 S10       30.23F
YOUNGSTOWN     CLOUDY    45  23  42 SW12      30.26F
$$

OHZ042-051>053-060>062-070>072-077>081-272000-
  SOUTHWEST OHIO

CITY           SKY/WX    TMP DP  RH WIND       PRES   REMARKS
CINC-COVINGTON LGT RAIN  45  44  97 S3        30.21F
CINC-LUNKEN    CLOUDY    46  44  93 CALM      30.24F
HAMILTON       LGT RAIN  45  44  97 VRB3      30.25F FOG
DAYTON         CLOUDY    46  37  71 S15       30.22F
WRIGHT-PAT AFB CLOUDY    46  39  77 S15       30.23F
DAYTON GENERAL LGT RAIN  43  41  93 S6        30.23F FOG
WILMINGTON     LGT RAIN  43  41  93 S7        30.23F
$$

OHZ036-037-039>041-045>050-054>059-063>069-073>076-082>088-272000-
  CENTRAL AND SOUTHEAST OHIO

CITY           SKY/WX    TMP DP  RH WIND       PRES   REMARKS
COLUMBUS       CLOUDY    45  37  73 S13       30.27F
OSU AIRPORT    CLOUDY    44  39  82 S13       30.25F
BOLTON FIELD   CLOUDY    43  37  81 S12       30.27S
RICKENBACK AFB RAIN      43  40  92 S7        30.27S
NEWARK         CLOUDY    43  37  79 S10       30.27S
MARION         CLOUDY    47  36  65 S13       30.23F
LANCASTER      LGT RAIN  45  40  82 S8        30.28F
ZANESVILLE     LGT RAIN  42  38  85 S7        30.29F
NEW PHILLY     NOT AVBL
$$




USA.gov is the U.S. government's official web portal to all federal, state and local government web resources and services.